Terug naar catalogus

COSMOS 1691 DEB

ActiefPO
NORAD 43315·DEBRIS·🇷🇺 Russia

Gelanceerd Oct 9, 1985 vanaf Plesetsk Cosmodrome

Loading…

Volgende Passages (komende 24 uur)

TLE

VersSource: Space-Track

Epoch: Sep 13, 2026, 06:49 UTC

1 43315U 85094Z   26256.28470636  .00000183  00000-0  87337-3 0  9992
2 43315  82.5592  98.3937 0019798 127.9177 232.3711 12.69298148593024

Volg COSMOS 1691 DEB in realtime met AllMySat

Download on the App Store